Tracking 19817 objects as of 18-Aug-2019
HD Live streaming from Space Station
objects crossing your sky now

GB 2

Track GB 2 now!
10-day predictions
GB 2 is classified as:


NORAD ID: 14144
Int'l Code: 1983-056D
Perigee: 384.2 km
Apogee: 1,745.5 km
Inclination: 63.3 °
Period: 106.4 minutes
Semi major axis: 7435 km
RCS: Unknown
Launch date: June 9, 1983
Source: United States (US)
Launch site: AIR FORCE WESTERN TEST RANGE (AFWTR)
aabbcc
Your satellite tracking list
Your tracking list is empty




NASA's NSSDC Master Catalog

Two Line Element Set (TLE):
1 14144U 83056D   19229.12510271  .00000633  00000-0  61723-4 0  9993
2 14144  63.2929 148.9431 0915307  86.7634 283.7530 13.53963479 15662
Source of the keplerian elements: McCants